Location: *
(51.0333°S, 178.4667°E)
Time: 08:28:46
(UTC+00:00)

Spot 2 Rocket - Pass Details

Date: 15 November 2019
Orbit: 757 x 772 km, 98.6° (Epoch: 13 December)

Event Time Altitude Azimuth Distance (km) Brightness Sun altitude
Rises 10:26:31 0° 167° (SSE) 3,262 7.7 -18.1°
Reaches altitude 10° 10:28:51 10° 169° (S) 2,331 6.9 -18.2°
Maximum altitude 10:33:56 68° 250° (WSW) 836 3.8 -18.5°
Enters shadow 10:37:24 21° 329° (NNW) 1,697 4.9 -18.7°
